Theta_e
322 322 324 323 324 324 322 322 322 319 319 320 320 319 318 320 320 319 320 321 322 323 324 325 324 323 322 322 322 324 326 327 329 326 325 328 324 327 330 328 328 329 330 330
321 323 318 320 321 323 322 324 324 320 319 321 320 321 319 318 319 319 319 320 321 323 323 324 325 324 323 322 322 324 325 326 327 329 327 327 326 325 324 329 328 327 328 330
320 318 318 319 320 321 321 321 322 323 319 319 321 321 319 317 318 319 319 320 320 321 322 323 325 325 324 323 323 324 324 325 326 327 328 329 329 329 328 325 324 325 325 327
319 317 317 318 319 319 322 318 320 320 322 324 317 321 317 315 314 314 316 318 318 318 319 319 320 323 324 324 323 322 322 324 324 326 328 329 328 328 326 325 325 326 326 327
317 317 318 319 320 318 319 317 318 318 319 321 322 322 318 314 316 315 314 316 317 317 317 317 318 319 319 320 321 320 321 321 322 325 328 329 330 329 328 328 327 328 328 329
315 315 315 316 316 317 315 317 318 318 321 322 318 320 318 316 314 313 314 315 316 317 317 317 318 319 319 319 319 320 321 321 321 322 325 329 329 329 329 329 328 327 328 328
317 316 314 316 318 317 317 319 322 322 322 322 315 318 318 314 312 312 312 313 313 314 314 314 314 314 314 314 315 316 317 319 321 323 325 327 328 328 329 329 329 329 330 329
316 317 316 314 318 320 319 320 321 321 321 318 314 319 317 314 315 316 315 314 313 312 311 310 310 311 312 312 313 312 312 312 313 313 313 316 323 326 328 328 329 329 329 329
315 315 313 313 315 316 318 321 318 317 306 313 316 314 313 312 311 312 312 312 312 311 310 309 309 310 310 311 311 311 311 311 311 312 312 312 311 311 313 317 321 323 325 326
312 310 314 314 315 316 319 318 320 318 322 321 316 314 316 313 313 309 308 311 311 311 311 308 309 309 309 309 310 310 310 310 310 310 311 311 311 311 311 311 313 316 320 322
310 311 311 314 317 317 319 316 315 317 317 319 315 313 308 310 310 309 309 311 312 311 308 308 308 307 307 307 307 307 307 306 307 307 309 309 310 311 311 311 311 310 311 314
311 310 307 313 312 312 314 316 315 318 320 317 314 315 307 306 308 310 309 310 309 306 306 306 305 305 305 305 305 304 304 305 304 304 304 305 307 309 309 310 310 310 311 311
311 314 313 313 315 313 315 314 316 313 311 317 320 320 312 312 311 310 308 305 304 303 302 302 302 302 302 302 302 301 301 301 301 302 302 302 302 302 304 307 309 309 310 310
312 310 308 309 308 311 313 313 313 314 316 314 318 315 314 311 311 310 311 309 309 307 301 299 299 298 298 298 299 299 299 299 299 299 300 300 301 301 301 301 301 304 308 309
310 310 309 311 312 312 312 312 313 313 314 314 312 313 313 309 310 309 309 310 307 302 300 298 296 296 296 297 298 298 298 298 298 298 298 298 299 299 299 300 301 301 301 303
310 310 308 307 310 310 312 312 312 312 312 311 311 312 310 309 308 307 307 304 300 297 296 294 295 295 294 295 296 296 296 296 296 296 297 297 297 297 297 298 298 299 300 300
312 309 310 313 310 309 309 309 313 312 311 311 313 311 308 309 306 301 298 296 293 292 291 292 292 292 292 291 291 293 294 294 294 294 295 295 296 296 296 296 297 297 298 298
312 308 306 297 309 312 307 303 309 311 308 303 304 300 306 301 294 293 293 291 289 289 289 290 289 290 290 289 291 292 292 292 293 293 293 294 294 295 295 295 295 296 296 297
308 306 305 303 298 302 304 303 305 309 307 297 299 297 296 292 291 288 288 288 288 287 287 286 287 287 287 287 287 287 289 290 290 290 291 292 292 293 293 294 294 294 295 295
306 308 306 292 304 302 302 301 300 304 306 293 294 292 295 295 300 290 286 286 286 285 285 284 284 284 285 287 288 289 289 289 290 289 289 289 289 289 290 290 291 292 292 293
309 308 310 294 295 296 298 295 298 303 303 290 290 289 290 294 288 286 286 285 284 283 284 284 285 286 286 287 287 287 287 287 287 286 287 287 287 288 288 288 289 289 290 291
308 307 304 296 299 302 287 295 301 293 288 287 286 286 286 286 285 285 284 284 283 283 282 282 283 282 282 283 284 284 284 283 283 284 284 284 284 285 285 285 286 286 287 288
303 302 301 302 301 286 284 285 287 288 286 285 287 285 286 286 285 284 282 281 281 281 281 281 281 281 282 282 282 282 282 282 283 283 284 284 283 283 283 283 284 284 283 284
299 298 298 296 288 284 281 282 285 286 286 284 284 283 282 281 280 280 280 280 280 280 280 280 280 281 281 280 280 280 280 280 280 281 281 281 281 282 282 281 281 281 280 280
295 297 292 289 284 282 281 281 281 281 281 281 280 280 280 280 279 279 278 278 279 279 280 280 281 279 279 279 279 280 279 280 280 280 280 280 280 280 280 279 277 276 277 276
287 292 297 297 287 287 284 281 280 280 279 278 278 277 277 277 277 277 277 277 278 278 278 278 276 277 277 278 279 280 279 280 280 279 279 279 278 278 277 277 277 277 275 275
Wind_Speed
8 5 16 11 4 2 2 3 5 1 0 2 5 10 13 22 27 26 31 36 36 40 38 34 33 29 35 32 33 34 35 33 32 34 37 39 37 36 38 36 35 34 34 34
5 21 4 5 5 7 6 8 7 1 2 1 6 20 15 17 26 30 31 35 44 45 43 42 38 32 30 35 34 35 36 36 37 35 34 37 39 38 36 39 37 35 36 36
13 0 16 10 5 11 13 17 10 7 2 4 2 20 22 19 27 34 32 37 43 44 47 47 44 40 38 36 36 38 38 37 39 37 37 38 39 41 42 41 40 39 38 37
11 11 7 5 13 9 14 7 6 8 4 10 6 14 15 10 9 11 25 33 38 40 43 41 42 43 40 41 40 39 39 39 38 39 41 41 40 42 39 38 40 40 38 37
6 9 14 10 16 9 10 7 11 7 6 3 14 7 5 3 19 18 19 30 26 30 30 30 29 31 28 28 32 37 36 32 32 38 42 43 44 43 41 42 40 39 39 39
3 2 8 9 6 13 3 4 2 3 5 10 27 10 20 15 17 6 6 14 12 8 5 6 6 6 9 11 14 18 22 22 26 31 36 40 41 42 43 43 42 40 39 39
7 9 3 2 6 5 8 6 4 6 7 10 5 9 23 19 8 12 9 2 4 10 16 19 16 13 10 7 5 3 1 3 9 16 22 28 31 34 38 40 43 44 45 44
14 8 14 7 8 6 13 17 7 8 5 4 1 9 12 14 26 31 27 9 9 17 20 20 19 18 16 14 14 12 9 7 5 3 5 11 19 27 32 36 39 43 44 44
11 8 1 3 6 11 5 13 15 3 2 1 5 7 10 9 8 2 17 20 17 17 20 21 19 19 16 14 12 10 10 10 9 7 7 9 11 12 19 25 30 36 39 39
7 2 3 2 3 6 8 3 8 6 9 8 5 6 9 5 5 6 8 19 16 18 19 20 21 20 17 15 13 9 10 14 13 11 11 12 14 14 15 17 21 24 28 32
5 3 2 3 8 10 6 5 5 4 5 5 2 5 4 8 8 13 13 23 19 17 20 20 20 18 17 14 13 14 14 17 17 18 17 15 15 16 17 18 19 21 23 28
7 4 4 7 2 3 2 9 8 2 1 1 1 6 9 9 2 8 14 14 17 21 22 19 18 17 17 17 16 17 17 18 20 20 21 21 21 19 20 21 23 23 23 22
11 6 4 3 2 3 5 5 5 4 3 6 2 3 8 21 21 25 25 25 22 20 19 18 18 19 18 17 16 18 20 20 21 21 22 23 25 26 26 25 25 26 27 27
22 5 9 12 5 6 7 10 11 6 3 5 5 3 1 6 11 14 20 13 11 14 16 18 19 19 21 20 20 20 23 24 24 24 25 26 27 29 30 30 29 28 28 29
12 7 4 1 1 3 4 8 16 16 16 7 7 11 13 5 5 1 1 3 1 5 7 14 18 20 23 22 22 23 26 28 28 29 29 30 30 31 32 33 34 34 34 32
4 3 4 2 3 4 6 11 13 18 8 5 6 6 7 14 11 12 12 8 6 7 7 11 14 19 24 25 24 27 30 31 33 34 34 34 34 34 34 36 36 37 38 38
14 7 5 6 3 2 6 14 14 14 12 10 11 9 7 7 11 13 15 12 9 6 7 13 18 21 26 28 28 32 34 36 38 40 40 42 44 43 42 41 41 41 41 41
12 8 2 3 4 9 4 2 11 16 7 4 3 3 6 20 20 19 12 9 6 7 11 16 19 23 25 28 32 34 36 37 39 40 42 44 46 48 49 47 44 44 44 43
10 5 3 5 4 5 4 5 8 10 10 3 6 7 20 27 25 12 7 4 5 9 11 15 17 23 25 29 32 35 38 41 42 44 46 46 47 48 50 51 52 51 49 49
5 7 4 3 5 9 5 4 5 5 7 6 10 6 17 20 9 4 2 3 6 9 12 15 21 24 28 33 36 38 38 39 42 46 48 50 52 53 54 52 51 50 50 53
7 5 12 4 4 7 4 1 3 6 5 12 15 10 10 5 4 7 1 5 9 11 16 21 25 29 32 34 37 39 40 41 43 45 46 47 48 50 52 54 53 53 51 51
8 8 4 3 3 8 2 2 8 8 12 19 16 11 12 11 6 1 4 7 11 15 18 22 25 27 30 33 36 37 39 41 43 45 47 48 48 48 48 49 50 49 50 51
3 6 6 6 4 4 4 5 11 13 23 17 15 12 9 7 2 2 6 9 12 15 18 20 24 26 28 29 31 33 36 39 42 43 44 45 46 46 46 48 49 49 48 47
3 2 4 4 3 6 9 12 16 21 20 19 15 11 8 5 2 2 5 8 11 14 17 20 22 22 23 24 25 27 30 32 35 38 40 41 43 44 44 44 44 44 44 45
3 7 6 3 5 8 7 12 18 19 18 16 13 9 7 4 2 1 3 6 9 12 14 16 17 18 20 21 23 25 27 31 33 35 38 41 43 45 46 44 44 41 39 36
2 5 6 4 13 5 10 24 20 18 16 13 12 11 8 7 4 4 4 6 7 8 10 11 13 16 18 20 21 22 24 26 30 33 37 39 42 44 44 45 47 41 33 33
Wind_Direction
186 205 221 207 206 255 41 258 235 84 293 347 272 281 278 289 289 284 283 281 281 272 269 269 269 267 254 253 258 258 258 258 251 250 249 250 251 254 256 255 256 257 258 259
182 230 156 193 189 222 229 257 254 274 275 222 309 289 286 282 280 277 273 274 276 271 270 261 259 262 260 254 253 253 257 258 255 254 257 255 257 258 261 262 262 262 261 260
213 209 172 183 183 216 232 236 243 254 214 268 7 280 281 274 254 268 268 273 274 266 267 265 257 257 257 257 256 257 261 260 261 258 257 257 254 257 257 259 262 261 262 262
222 216 159 172 221 190 238 176 184 203 194 255 150 280 274 292 270 258 274 280 273 273 273 274 268 258 259 262 267 266 262 262 263 258 254 256 260 258 266 269 270 269 271 271
209 165 184 200 217 171 243 166 198 209 232 313 241 251 281 311 286 279 264 273 289 284 271 273 271 270 271 271 272 269 264 272 269 263 258 259 259 264 268 268 271 273 275 274
204 151 169 208 186 184 123 98 134 180 225 241 249 217 273 262 253 271 268 304 314 320 271 249 271 282 271 267 273 252 255 258 260 261 264 264 265 267 268 270 272 277 279 279
182 212 165 208 177 157 176 151 235 232 203 242 246 193 241 263 253 249 264 316 102 98 98 95 95 91 84 75 63 59 108 227 262 270 272 274 272 273 274 275 276 277 278 279
211 215 197 180 211 178 199 203 215 232 221 238 58 213 244 238 263 244 255 210 136 114 98 90 87 86 80 74 69 66 76 69 60 13 324 290 279 275 276 278 278 279 280 282
197 223 122 195 176 177 171 223 230 266 93 176 219 276 293 253 267 259 195 163 144 110 93 82 82 83 80 75 64 47 39 40 29 8 347 342 335 304 284 279 280 283 284 284
176 110 206 167 145 252 205 351 212 204 223 229 240 263 244 329 244 171 158 158 134 110 93 84 87 82 76 70 63 47 29 24 20 11 358 345 338 332 327 313 296 285 281 284
138 102 218 188 203 197 176 210 255 242 188 178 224 252 252 272 197 178 171 153 131 96 92 92 86 78 71 65 56 46 36 26 22 21 14 357 342 338 337 331 324 313 301 291
164 139 184 203 119 132 278 207 186 243 187 222 218 260 351 340 291 144 144 125 82 97 96 90 82 76 64 54 45 39 32 25 19 13 8 6 1 354 344 339 335 328 318 310
162 196 182 310 265 188 218 197 161 117 119 220 254 251 21 41 38 63 69 58 61 66 73 69 60 53 48 42 34 28 21 18 11 5 357 353 352 351 350 346 339 334 328 322
160 167 199 214 201 143 198 197 192 177 190 174 213 223 13 23 35 37 66 67 32 25 30 37 39 33 28 26 20 15 10 6 2 358 353 350 347 343 340 338 335 333 329 324
171 202 184 292 307 152 185 178 195 206 222 197 197 188 190 192 139 147 252 264 298 50 32 20 19 14 8 11 7 1 357 353 350 348 345 342 338 335 333 330 327 326 324 321
180 186 126 227 185 192 234 229 215 221 226 254 166 249 211 193 171 162 156 147 103 68 34 8 13 1 358 359 355 348 345 344 342 339 337 334 330 329 327 324 323 321 318 317
174 143 170 216 153 145 290 216 203 214 218 207 203 218 146 157 143 112 103 99 74 53 14 4 356 355 355 350 344 341 341 339 339 337 334 332 330 328 326 323 320 318 315 313
175 142 155 167 135 225 240 163 184 192 198 200 114 54 132 130 108 104 100 107 80 26 1 354 344 351 348 339 338 339 339 338 336 333 330 328 325 324 324 324 322 318 314 311
167 135 141 153 205 307 278 187 152 177 219 208 137 104 117 121 110 84 113 94 36 359 343 337 341 343 340 340 340 340 342 340 336 331 327 326 324 323 322 320 320 320 318 314
138 174 142 149 172 212 233 136 46 103 256 168 149 140 159 163 186 142 145 5 347 339 338 334 338 341 342 343 340 338 335 331 329 326 326 325 325 323 321 320 319 316 315 312
166 169 198 157 215 285 241 359 72 132 231 136 141 142 160 161 101 149 289 330 339 341 339 338 342 345 344 341 341 339 336 334 331 327 325 324 322 320 319 318 317 316 316 312
168 155 173 117 165 260 108 121 178 123 118 141 137 128 111 127 144 168 327 337 340 343 345 346 348 352 352 348 344 342 339 336 333 331 331 329 327 326 322 319 318 317 317 314
212 183 172 187 200 79 66 92 139 156 145 151 146 143 141 144 167 315 344 346 347 348 351 353 356 358 355 351 347 344 342 338 336 335 333 333 332 333 331 328 325 324 325 322
251 167 118 115 149 133 124 128 141 156 150 152 153 152 155 160 166 344 355 352 357 360 2 2 1 358 357 358 356 352 347 346 346 346 346 346 344 342 340 337 336 333 333 331
182 132 133 77 114 116 177 165 150 144 145 146 147 151 153 155 150 46 28 17 17 18 14 6 2 6 6 5 4 0 358 355 355 354 353 353 352 353 351 349 347 340 338 328
203 158 177 203 174 135 158 169 164 156 152 150 152 149 149 151 139 107 74 54 48 43 36 28 21 17 15 10 6 4 359 356 356 357 357 357 356 355 354 352 349 352 342 330